Home > Time Zones > World Clock > Weather > Italy > Turin > Past weeks

Flag for Italy Weather past 2 weeks in Turin, Italy

Now
55 °F

Drizzle. Fog.


Feels Like: 52 °F
Forecast: 61 / 70 °F
Wind: 15 mph from North

Location: Torino / Bric Della Croce

Current Time: Sep 18, 2014 at 1:42:51 PM

Latest Report: Sep 18, 2014 at 12:55 PM


Visibility: 0 mi

Pressure: 30.07 "Hg

Humidity: 100%

Dew point: 55 °F

Location of TurinLocation

Historic Weather in Turin — Graph

°F

Turin temperature yesterday

Maximum temperature yesterday: 63 °F (at 12:55 AM)
Minimum temperature yesterday: 59 °F (at 8:55 AM)
Average temperature yesterday: 61 °F

Past Weeks' High & Low Weather Summary

 TemperatureHumidityPressure
High77 °F (Sep 8, 4:55 PM)100% (Sep 5, 3:55 AM)30.09 "Hg (Sep 5, 3:55 AM)
Low54 °F (Sep 12, 7:55 AM)38% (Sep 13, 4:55 PM)29.83 "Hg (Sep 11, 3:55 PM)
Average65 °F84%29.99 "Hg
* Reported Sep 3 11:55 AM — Sep 18 11:55 AM, Turin, Weather by CustomWeather, © 2014

Note: Actual official high and low records may vary slightly from our data, if they occured in-between our weather recording intervals... More about our weather records

Advertising

Turin weather history for previous 24 hours

 ConditionsComfort  
Time TempWeatherWind HumidityBarometerVisibility
11:55 AM
Sep 18
55 °FDrizzle. Fog.12 mph100%30.07 "Hg0 mi
10:55 AM57 °FDrizzle. Fog.8 mph100%30.07 "Hg0 mi
9:55 AM57 °FDrizzle. Fog.8 mph100%30.04 "Hg0 mi
8:55 AM57 °FLight rain. Fog.6 mph100%30.04 "Hg0 mi
7:55 AM57 °FLight rain. Fog.9 mph100%30.01 "Hg0 mi
6:55 AM57 °FLight rain. Fog.6 mph100%30.01 "Hg0 mi
5:55 AM57 °FLight rain. Fog.7 mph100%30.01 "Hg0 mi
4:55 AM57 °FFog.7 mph100%30.01 "Hg0 mi
3:55 AM57 °FPassing clouds.7 mph100%30.04 "HgN/A
2:55 AM57 °FPassing clouds.10 mph100%30.04 "HgN/A
1:55 AM59 °FPassing clouds.7 mph100%30.04 "HgN/A
12:55 AM61 °FPassing clouds.6 mph83%30.04 "HgN/A
11:55 PM
Sep 17
61 °FPassing clouds.5 mph77%30.04 "HgN/A
10:55 PM61 °FPassing clouds.7 mph83%30.04 "HgN/A
9:55 PM61 °FPassing clouds.9 mph83%30.04 "HgN/A
8:55 PM59 °FPassing clouds.9 mph88%30.04 "HgN/A
7:55 PM59 °FPartly sunny.7 mph94%30.04 "HgN/A
6:55 PM59 °FPassing clouds.9 mph100%30.01 "HgN/A
5:55 PM61 °FPartly sunny.9 mph100%30.01 "Hg4 mi
4:55 PM63 °FPartly sunny.8 mph100%30.04 "Hg4 mi
3:55 PM63 °FScattered clouds.5 mph100%30.04 "Hg4 mi
2:55 PM63 °FPartly sunny.6 mph83%30.04 "Hg4 mi
1:55 PM63 °FFog.7 mph94%30.04 "Hg2 mi
Weather by CustomWeather, © 2014

See weather overviewHow to use our weather pages